Change the Weather History Date:

Friday, December 28, 2012

  Actual Average (K1V4) Record (K1V4)
Temperature  
Mean Temperature 22 °F 19 °F  
Max Temperature 24 °F 28 °F 52 °F (1949)
Min Temperature 19 °F 10 °F -27 °F (1933)
Degree Days  
Heating Degree Days 44 46  
Month to date heating degree days 1158  
Since 1 July heating degree days 2814  
Cooling Degree Days 0 0  
Month to date cooling degree days 0  
Year to date cooling degree days 433  
Moisture  
Dew Point 16 °F    
Average Humidity 80    
Maximum Humidity 85    
Minimum Humidity 76    
Precipitation  
Precipitation 0.00 in 0.09 in 1.30 in (1946)
Month to date precipitation 2.81  
Year to date precipitation 39.23  
Sea Level Pressure  
Sea Level Pressure 29.89 in    
Wind  
Wind Speed 8 mph (NW)    
Max Wind Speed 15 mph    
Max Gust Speed 23 mph    
Visibility 8 miles    
Events Snow    
T = Trace of Precipitation, MM = Missing Value Source: NWS Daily Summary

Daily Weather History Graph

Daily Weather History Graph

Search for Another Location

Airport or City:

Trip Planner

Search our weather history database for the weather conditions in past years. The results will help you decide how hot, cold, wet, or windy it might be!

Date:

Astronomy

Dec. 28, 2012 Rise Set
Actual Time 7:24 AM EST 4:15 PM EST
Civil Twilight 6:50 AM EST 4:49 PM EST
Nautical Twilight 6:14 AM EST 5:25 PM EST
Astronomical Twilight 5:38 AM EST 6:01 PM EST
Moon 4:52 PM EST (12/28) 7:14 AM EST (12/28)
Length of Visible Light 9h 58m
Length of Day
8h 51m
Full, 100% of the Moon is Illuminated
Dec 28
Full
Jan 4
Last Quarter
Jan 11
New
Jan 18
First Quarter
Jan 26
Full

Hourly Weather History & Observations

Time (EST) Temp. Windchill Dew Point Humidity Pressure Visibility Wind Dir Wind Speed Gust Speed Precip Events Conditions
12:35 AM 22.1 °F 13.7 °F 16.7 °F 80% 29.69 in 10.0 mi NW 6.9 mph - N/A   Overcast
12:55 AM 22.1 °F 12.8 °F 17.1 °F 81% 29.70 in 10.0 mi NW 8.1 mph - N/A   Overcast
1:15 AM 21.9 °F 11.0 °F 17.2 °F 82% 29.71 in 10.0 mi NW 10.4 mph - N/A   Overcast
1:35 AM 21.9 °F 12.5 °F 17.4 °F 83% 29.72 in 10.0 mi NW 8.1 mph - N/A   Overcast
1:55 AM 22.1 °F 10.6 °F 17.6 °F 83% 29.74 in 7.0 mi NW 11.5 mph 18.4 mph N/A   Overcast
2:15 AM 22.1 °F 12.0 °F 18.1 °F 85% 29.75 in 4.0 mi NW 9.2 mph 16.1 mph N/A   Overcast
2:35 AM 22.3 °F 10.2 °F 18.0 °F 83% 29.75 in 5.0 mi NW 12.7 mph 18.4 mph N/A   Overcast
2:55 AM 22.5 °F 9.9 °F 17.6 °F 82% 29.76 in 7.0 mi NNW 13.8 mph - N/A   Overcast
3:15 AM 22.6 °F 10.1 °F 17.8 °F 82% 29.77 in 5.0 mi NW 13.8 mph 20.7 mph N/A   Overcast
3:35 AM 22.8 °F 10.9 °F 18.3 °F 83% 29.78 in 4.0 mi NNW 12.7 mph 17.3 mph N/A   Haze
3:55 AM 23.0 °F 12.4 °F 18.5 °F 83% 29.79 in 5.0 mi NW 10.4 mph 17.3 mph N/A Snow Light Snow
4:15 AM 22.1 °F 9.5 °F 17.6 °F 83% 29.79 in 7.0 mi NW 13.8 mph 23.0 mph N/A   Overcast
4:35 AM 21.7 °F 8.5 °F 17.2 °F 83% 29.80 in 7.0 mi NW 15.0 mph - N/A   Overcast
4:55 AM 21.4 °F 10.4 °F 16.9 °F 83% 29.80 in 10.0 mi NW 10.4 mph 16.1 mph N/A   Overcast
5:15 AM 21.6 °F 11.3 °F 17.2 °F 83% 29.81 in 7.0 mi NW 9.2 mph - N/A   Overcast
5:35 AM 21.7 °F 9.6 °F 17.1 °F 82% 29.83 in 10.0 mi NW 12.7 mph - N/A   Overcast
6:15 AM 21.6 °F 12.1 °F 16.7 °F 82% 29.84 in 5.0 mi NW 8.1 mph - N/A Snow Light Snow
6:35 AM 21.9 °F 14.5 °F 16.5 °F 80% 29.84 in 5.0 mi NW 5.8 mph - N/A   Haze
6:55 AM 22.1 °F 12.8 °F 16.7 °F 80% 29.84 in 3.0 mi NW 8.1 mph - N/A   Haze
7:15 AM 21.9 °F 12.5 °F 16.5 °F 80% 29.86 in 3.0 mi NW 8.1 mph - N/A Snow Light Snow
7:35 AM 21.6 °F 13.0 °F 15.8 °F 78% 29.86 in 3.0 mi WNW 6.9 mph - N/A Snow Light Snow
7:55 AM 21.2 °F 14.9 °F 16.5 °F 82% 29.87 in 1.5 mi West 4.6 mph - N/A Snow Light Snow
8:15 AM 21.2 °F 10.9 °F 16.0 °F 80% 29.88 in 2.0 mi NNW 9.2 mph - N/A Snow Light Snow
8:35 AM 21.2 °F 13.6 °F 14.9 °F 77% 29.89 in 5.0 mi NNW 5.8 mph - N/A   Haze
8:55 AM 21.2 °F 16.4 °F 15.6 °F 79% 29.91 in 3.0 mi NW 3.5 mph - N/A   Haze
9:15 AM 21.6 °F 13.0 °F 15.8 °F 78% 29.92 in 5.0 mi WNW 6.9 mph - N/A   Haze
9:35 AM 21.6 °F 16.8 °F 16.2 °F 80% 29.92 in 7.0 mi WNW 3.5 mph - N/A   Overcast
9:55 AM 21.9 °F 14.5 °F 16.7 °F 80% 29.92 in 4.0 mi NW 5.8 mph - N/A   Haze
10:15 AM 22.1 °F 14.7 °F 16.7 °F 80% 29.92 in 3.0 mi NW 5.8 mph - N/A Snow Light Snow
10:35 AM 22.1 °F 14.7 °F 16.0 °F 77% 29.92 in 2.0 mi NW 5.8 mph - N/A Snow Light Snow
11:15 AM 22.5 °F 13.2 °F 16.7 °F 79% 29.91 in 3.0 mi WNW 8.1 mph - N/A Snow Light Snow
11:35 AM 22.5 °F 12.4 °F 16.7 °F 79% 29.91 in 7.0 mi NW 9.2 mph - N/A   Overcast
11:55 AM 23.0 °F 14.7 °F 17.2 °F 79% 29.91 in 5.0 mi WNW 6.9 mph - N/A   Haze
12:15 PM 23.0 °F 14.7 °F 17.4 °F 79% 29.91 in 7.0 mi NW 6.9 mph - N/A   Overcast
12:35 PM 23.5 °F 16.4 °F 17.6 °F 78% 29.90 in 10.0 mi NW 5.8 mph - N/A   Overcast
1:15 PM 24.1 °F 14.4 °F 17.6 °F 76% 29.91 in 10.0 mi WNW 9.2 mph - N/A   Overcast
1:35 PM 24.4 °F 15.6 °F 18.0 °F 76% 29.91 in 10.0 mi West 8.1 mph - N/A   Overcast
1:55 PM 24.3 °F 15.4 °F 18.3 °F 78% 29.91 in 10.0 mi West 8.1 mph - N/A   Overcast
2:15 PM 23.5 °F 15.4 °F 18.3 °F 80% 29.92 in 10.0 mi West 6.9 mph - N/A   Overcast
2:35 PM 23.0 °F 13.1 °F 17.6 °F 80% 29.93 in 10.0 mi West 9.2 mph - N/A   Overcast
2:55 PM 23.0 °F 14.7 °F 17.6 °F 80% 29.92 in 10.0 mi West 6.9 mph - N/A   Overcast
3:15 PM 23.0 °F 14.7 °F 17.4 °F 79% 29.93 in 10.0 mi WNW 6.9 mph - N/A   Overcast
3:35 PM 23.0 °F 15.8 °F 17.1 °F 78% 29.93 in 10.0 mi West 5.8 mph - N/A   Overcast
3:55 PM 23.0 °F 14.7 °F 16.9 °F 77% 29.93 in 10.0 mi WNW 6.9 mph - N/A   Overcast
4:15 PM 22.6 °F 15.3 °F 16.5 °F 77% 29.93 in 10.0 mi WNW 5.8 mph - N/A   Overcast
4:35 PM 22.6 °F 11.9 °F 16.2 °F 76% 29.93 in 10.0 mi WNW 10.4 mph - N/A   Overcast
4:55 PM 21.9 °F 11.7 °F 15.8 °F 77% 29.93 in 10.0 mi WNW 9.2 mph - N/A   Mostly Cloudy
5:35 PM 22.3 °F 12.2 °F 16.5 °F 79% 29.96 in 10.0 mi West 9.2 mph - N/A   Overcast
5:55 PM 22.1 °F 10.0 °F 16.0 °F 77% 29.95 in 10.0 mi WNW 12.7 mph 16.1 mph N/A   Mostly Cloudy
6:15 PM 21.9 °F 13.4 °F 16.2 °F 78% 29.96 in 10.0 mi WNW 6.9 mph - N/A   Mostly Cloudy
6:35 PM 21.4 °F 12.8 °F 15.6 °F 78% 29.96 in 10.0 mi NW 6.9 mph - N/A   Mostly Cloudy
6:55 PM 21.9 °F - 15.8 °F 77% 29.96 in 10.0 mi Calm Calm - N/A   Scattered Clouds
7:15 PM 20.5 °F 12.8 °F 14.9 °F 79% 29.96 in 10.0 mi East 5.8 mph - N/A   Scattered Clouds
7:35 PM 19.8 °F 14.7 °F 15.3 °F 83% 29.96 in 10.0 mi East 3.5 mph - N/A   Mostly Cloudy
7:55 PM 20.1 °F 15.2 °F 15.3 °F 81% 29.96 in 10.0 mi East 3.5 mph - N/A   Overcast
8:15 PM 21.0 °F 14.6 °F 15.6 °F 80% 29.96 in 10.0 mi NNE 4.6 mph - N/A   Overcast
8:35 PM 21.2 °F - 15.6 °F 79% 29.96 in 10.0 mi Calm Calm - N/A   Overcast
8:55 PM 20.8 °F - 15.3 °F 79% 29.98 in 10.0 mi Calm Calm - N/A   Overcast
9:15 PM 20.3 °F - 14.9 °F 80% 29.98 in 10.0 mi Calm Calm - N/A   Overcast
9:35 PM 20.1 °F - 15.3 °F 81% 29.99 in 10.0 mi Calm Calm - N/A   Overcast
9:55 PM 20.1 °F - 15.3 °F 81% 29.99 in 10.0 mi Calm Calm - N/A   Overcast
10:15 PM 20.3 °F 15.4 °F 15.3 °F 81% 29.99 in 10.0 mi NNE 3.5 mph - N/A   Overcast
10:35 PM 19.8 °F 14.7 °F 14.7 °F 81% 29.99 in 10.0 mi NNE 3.5 mph - N/A   Overcast
10:55 PM 19.4 °F 14.3 °F 14.7 °F 82% 29.99 in 10.0 mi NE 3.5 mph - N/A   Overcast
11:15 PM 19.4 °F 14.3 °F 14.4 °F 81% 29.99 in 10.0 mi NNE 3.5 mph - N/A   Overcast
11:35 PM 19.4 °F 14.3 °F 14.5 °F 81% 29.98 in 10.0 mi NE 3.5 mph - N/A   Overcast
11:55 PM 19.4 °F 12.8 °F 14.4 °F 81% 29.98 in 10.0 mi NNE 4.6 mph - N/A   Overcast